EW6304 Weather Reports


Display with metric or nautical units.
time (UTC)temp
F
wind
direction
speed
MPH
gust
MPH
rain 1hr
in
rain 24hr
in
rain mn
in
humidity
%
barometer
mb
20260902101650 61 309 0.0 1.0 0.00 0.03 0.00 95 1020.1
20260902101149 61 309 0.0 1.0 0.00 0.03 0.00 95 1020.0
20260902100654 61 309 0.0 0.0 0.00 0.03 0.00 95 1019.8
20260902100648 61 309 0.0 1.0 0.00 0.03 0.00 95 1019.9
20260902095648 62 309 0.0 1.0 0.00 0.03 0.00 95 1019.9
20260902095148 61 309 0.0 1.0 0.00 0.03 0.00 96 1019.9
20260902094648 61 309 0.0 0.0 0.00 0.03 0.00 95 1019.9
20260902094146 61 309 0.0 0.0 0.00 0.03 0.00 95 1019.8
20260902093646 61 309 0.0 1.0 0.00 0.03 0.00 94 1019.9
20260902093146 61 309 0.0 1.0 0.00 0.03 0.00 94 1020.0
20260902092647 61 309 0.0 1.0 0.00 0.03 0.00 94 1020.0
20260902092145 61 309 0.0 1.0 0.00 0.03 0.00 95 1020.0
20260902091651 61 309 0.0 1.0 0.00 0.03 0.00 94 1019.8
20260902091646 62 309 0.0 1.0 0.00 0.03 0.00 95 1020.0
20260902090646 61 309 0.0 1.0 0.00 0.03 0.00 94 1019.7
20260902090145 62 309 0.0 0.0 0.00 0.03 0.00 94 1019.6
20260902085648 62 309 0.0 1.0 0.00 0.03 0.00 94 1019.7
20260902085145 62 309 0.0 1.0 0.00 0.03 0.00 94 1019.7
20260902084646 62 309 0.0 1.0 0.00 0.03 0.00 94 1019.6
20260902084151 62 309 0.0 1.0 0.00 0.03 0.00 94 1019.5
20260902084144 62 309 0.0 1.0 0.00 0.03 0.00 94 1019.5
20260902083144 62 309 0.0 1.0 0.00 0.03 0.00 94 1019.5
20260902082644 62 309 0.0 1.0 0.00 0.03 0.00 94 1019.5
20260902082144 62 309 0.0 1.0 0.00 0.03 0.00 94 1019.5
20260902081645 62 309 0.0 1.0 0.00 0.03 0.00 94 1019.6
20260902081145 62 309 0.0 0.0 0.00 0.03 0.00 94 1019.6
20260902080644 63 309 0.0 0.0 0.00 0.03 0.00 94 1019.7
20260902080144 63 309 0.0 1.0 0.00 0.03 0.00 94 1019.7
20260902075642 63 309 0.0 1.0 0.00 0.03 0.00 94 1019.7
20260902075142 63 309 0.0 2.0 0.00 0.03 0.00 94 1019.8
20260902074649 62 309 0.0 1.0 0.00 0.03 0.00 95 1019.8
20260902074644 62 309 0.0 2.0 0.00 0.03 0.00 95 1019.9
20260902073644 62 309 0.0 2.0 0.00 0.03 0.00 95 1019.6
20260902073143 62 309 1.0 2.0 0.00 0.03 0.00 95 1019.6
20260902072642 62 309 0.0 2.0 0.00 0.03 0.00 95 1019.5
20260902072148 62 309 0.0 1.0 0.00 0.03 0.00 95 1019.3
20260902072143 62 309 0.0 1.0 0.00 0.03 0.00 95 1019.3
20260902071141 62 309 0.0 1.0 0.00 0.03 0.00 95 1019.3
20260902070641 62 309 0.0 1.0 0.00 0.03 0.00 95 1019.4
20260902070141 62 309 0.0 2.0 0.00 0.03 0.00 95 1019.5
20260902065644 62 309 0.0 2.0 0.00 0.03 0.00 95 1019.5
20260902065141 62 309 0.0 2.0 0.00 0.03 0.00 95 1019.5
20260902064641 62 309 0.0 2.0 0.00 0.03 0.00 95 1019.5
20260902064141 62 309 0.0 2.0 0.00 0.03 0.00 95 1019.5
20260902063640 62 309 0.0 1.0 0.00 0.03 0.00 95 1019.4
20260902063141 62 309 0.0 1.0 0.00 0.03 0.00 95 1019.5
20260902062640 62 309 0.0 1.0 0.00 0.03 0.00 95 1019.5
20260902062145 62 309 0.0 0.0 0.00 0.03 0.00 95 1019.5
20260902062140 61 309 0.0 1.0 0.00 0.03 0.00 95 1019.5
20260902061140 62 309 0.0 0.0 0.00 0.03 0.00 96 1019.5
20260902060641 62 309 0.0 1.0 0.00 0.03 0.00 96 1019.5
20260902060151 61 309 0.0 1.0 0.00 0.03 0.00 96 1019.6
20260902060141 62 309 0.0 1.0 0.00 0.03 0.00 96 1019.6
20260902055140 61 309 0.0 1.0 0.00 0.03 0.00 95 1019.6
20260902054646 62 309 0.0 1.0 0.00 0.03 0.00 95 1019.4
20260902054641 61 309 0.0 1.0 0.00 0.03 0.00 95 1019.5
20260902054140 62 309 0.0 1.0 0.00 0.03 0.00 95 1019.4
20260902053141 61 309 0.0 0.0 0.00 0.03 0.00 95 1019.5
20260902052641 61 309 0.0 1.0 0.00 0.03 0.00 95 1019.5
20260902052142 62 309 0.0 1.0 0.00 0.03 0.00 95 1019.4
20260902051640 62 309 0.0 0.0 0.00 0.03 0.00 96 1019.5
20260902051139 62 309 0.0 3.0 0.00 0.03 0.00 96 1019.5
20260902050644 61 313 0.0 1.0 0.00 0.03 0.00 96 1019.5
20260902050640 61 309 0.0 3.0 0.00 0.03 0.00 96 1019.5
20260902045642 61 314 0.0 0.0 0.00 0.03 0.00 95 1019.2
20260902045638 61 314 0.0 1.0 0.00 0.03 0.00 95 1019.2
20260902044638 61 313 0.0 1.0 0.00 0.03 0.00 95 1019.1
20260902044137 62 314 0.0 1.0 0.00 0.03 0.00 95 1019.0
20260902043641 62 314 0.0 1.0 0.00 0.03 0.00 95 1018.6
20260902043635 62 314 0.0 1.0 0.00 0.03 0.00 95 1018.9
20260902043135 62 314 0.0 1.0 0.00 0.03 0.00 95 1018.7
20260902042135 62 314 0.0 0.0 0.00 0.03 0.00 95 1018.7
20260902041637 62 314 0.0 0.0 0.00 0.03 0.00 95 1018.7
20260902041135 62 314 0.0 0.0 0.00 0.03 0.00 96 1018.7
20260902040639 62 314 0.0 1.0 0.00 0.03 0.00 96 1018.5
20260902040634 62 314 0.0 1.0 0.00 0.03 0.00 96 1018.6
20260902035631 62 314 0.0 0.0 0.00 0.03 0.03 96 1018.6
20260902035130 62 314 0.0 0.0 0.00 0.03 0.03 96 1018.5
20260902034632 62 314 0.0 0.0 0.00 0.03 0.03 96 1018.5
20260902034132 62 314 0.0 0.0 0.00 0.03 0.03 96 1018.5
20260902033629 62 314 0.0 0.0 0.00 0.03 0.03 95 1018.4
20260902033130 62 314 0.0 1.0 0.00 0.03 0.03 95 1018.3
20260902032629 62 314 0.0 1.0 0.00 0.03 0.03 95 1018.3
20260902032133 62 314 0.0 1.0 0.00 0.03 0.03 95 1018.4
20260902032128 62 314 0.0 0.0 0.00 0.03 0.03 95 1018.3
20260902031627 62 314 0.0 1.0 0.00 0.03 0.03 95 1018.3
20260902030629 62 314 0.0 1.0 0.00 0.03 0.03 95 1018.5
20260902030129 62 317 0.0 1.0 0.00 0.03 0.03 95 1018.4
20260902025629 62 314 0.0 0.0 0.00 0.03 0.03 95 1018.5
20260902025128 62 314 0.0 0.0 0.00 0.03 0.03 95 1018.5
20260902024628 62 314 0.0 0.0 0.00 0.03 0.03 95 1018.6
20260902024127 62 314 0.0 0.0 0.00 0.03 0.03 95 1018.6
20260902023628 62 314 0.0 0.0 0.00 0.03 0.03 95 1018.4
20260902023126 62 314 0.0 1.0 0.00 0.03 0.03 95 1018.4
20260902022625 62 314 0.0 1.0 0.00 0.03 0.03 95 1018.5
20260902022125 62 314 0.0 1.0 0.00 0.03 0.03 95 1018.4
20260902021632 62 314 0.0 1.0 0.00 0.03 0.03 95 1018.3
20260902021627 62 314 0.0 1.0 0.00 0.03 0.03 95 1018.3
20260902020627 62 314 0.0 0.0 0.00 0.03 0.03 95 1018.3
20260902020128 62 313 0.0 1.0 0.00 0.03 0.03 95 1018.4
20260902015624 62 313 0.0 1.0 0.00 0.03 0.03 95 1018.4
20260902015126 62 313 0.0 1.0 0.00 0.03 0.03 95 1018.4
20260902014626 62 313 0.0 0.0 0.00 0.03 0.03 95 1018.5
20260902014124 62 313 0.0 0.0 0.00 0.03 0.03 95 1018.4
20260902013628 62 313 0.0 0.0 0.00 0.03 0.03 95 1018.1
20260902013622 62 313 0.0 0.0 0.00 0.03 0.03 95 1018.3
20260902012624 62 313 0.0 0.0 0.00 0.03 0.03 95 1018.1
20260902012125 62 313 0.0 0.0 0.00 0.03 0.03 95 1018.2
20260902011624 62 313 0.0 0.0 0.00 0.03 0.03 95 1018.3
20260902011126 62 313 0.0 0.0 0.00 0.03 0.03 94 1018.3
20260902010625 62 313 0.0 0.0 0.00 0.03 0.03 94 1018.4
20260902010123 62 313 0.0 0.0 0.00 0.03 0.03 94 1018.3
20260902005624 62 313 0.0 0.0 0.00 0.03 0.03 94 1018.3
20260902005122 62 313 0.0 0.0 0.00 0.03 0.03 94 1018.2
20260902004622 62 313 0.0 0.0 0.00 0.03 0.03 94 1018.0
20260902004119 62 313 0.0 0.0 0.00 0.03 0.03 94 1017.9
20260902003620 63 313 0.0 0.0 0.00 0.03 0.03 94 1018.0
20260902003124 63 313 0.0 0.0 0.00 0.03 0.03 94 1018.0
20260902003118 63 313 0.0 0.0 0.00 0.03 0.03 94 1018.0
20260902002116 63 313 0.0 0.0 0.00 0.03 0.03 94 1018.0
20260902001617 63 313 0.0 0.0 0.00 0.03 0.03 94 1018.0
20260902001117 63 313 0.0 0.0 0.00 0.03 0.03 94 1018.0
20260902000617 63 313 0.0 0.0 0.00 0.03 0.03 94 1018.1
20260902000117 63 313 0.0 0.0 0.00 0.03 0.03 94 1018.1
20260901235617 63 313 0.0 0.0 0.00 0.03 0.03 94 1018.0
20260901235118 63 313 0.0 0.0 0.00 0.03 0.03 94 1017.9
20260901234622 63 313 0.0 0.0 0.00 0.03 0.03 94 1017.8
20260901234617 63 313 0.0 0.0 0.00 0.03 0.03 94 1017.8
20260901233621 63 313 0.0 0.0 0.00 0.03 0.03 94 1017.8
20260901233616 63 313 0.0 0.0 0.00 0.03 0.03 94 1017.9
20260901233230 64 313 0.0 0.0 0.00 0.03 0.03 94 1017.9
20260901232617 63 313 0.0 0.0 0.00 0.03 0.03 94 1017.8
20260901231615 64 313 0.0 0.0 0.00 0.03 0.03 93 1017.9
20260901231116 64 313 0.0 0.0 0.00 0.03 0.03 93 1017.8
20260901230616 64 313 0.0 0.0 0.00 0.03 0.03 93 1017.6
20260901230120 64 313 0.0 1.0 0.00 0.03 0.03 93 1017.6
20260901230115 64 313 0.0 0.0 0.00 0.03 0.03 93 1017.5
20260901225120 64 313 0.0 1.0 0.00 0.03 0.03 93 1017.5
20260901225116 64 313 0.0 1.0 0.00 0.03 0.03 93 1017.6
20260901224614 64 313 0.0 1.0 0.00 0.03 0.03 93 1017.6
20260901223614 64 313 0.0 0.0 0.00 0.03 0.03 93 1017.5
20260901223115 64 313 0.0 1.0 0.00 0.03 0.03 93 1017.6
20260901222615 64 313 0.0 1.0 0.00 0.03 0.03 93 1017.6
20260901222116 64 313 0.0 1.0 0.01 0.03 0.03 93 1017.7
20260901221614 64 313 0.0 1.0 0.01 0.03 0.03 93 1017.8
20260901221117 64 313 0.0 1.0 0.01 0.03 0.03 93 1017.9
20260901220614 64 313 0.0 1.0 0.01 0.03 0.03 93 1018.0
20260901220116 64 313 0.0 1.0 0.01 0.03 0.03 92 1017.9
20260901215616 65 313 0.0 1.0 0.01 0.03 0.03 93 1017.9
20260901215112 65 313 0.0 1.0 0.01 0.03 0.03 93 1017.9
20260901214613 65 313 0.0 1.0 0.01 0.03 0.03 93 1017.9
20260901214111 65 313 0.0 2.0 0.01 0.03 0.03 92 1017.8
20260901213613 65 313 0.0 2.0 0.01 0.03 0.03 92 1017.8
20260901213111 65 313 0.0 2.0 0.01 0.03 0.03 92 1017.9
20260901212609 65 313 0.0 2.0 0.01 0.03 0.03 92 1017.9
20260901212109 65 313 0.0 1.0 0.00 0.02 0.02 92 1017.8
20260901211614 65 313 0.0 1.0 0.00 0.02 0.02 92 1017.7
20260901211608 65 313 0.0 1.0 0.00 0.02 0.02 92 1017.8
20260901210608 65 313 0.0 1.0 0.00 0.02 0.02 92 1017.5
20260901210108 65 313 0.0 1.0 0.00 0.02 0.02 92 1017.5
20260901205606 65 313 0.0 2.0 0.00 0.02 0.02 92 1017.5
20260901205105 65 313 0.0 2.0 0.00 0.02 0.02 92 1017.4
20260901204605 65 313 1.0 3.0 0.00 0.02 0.02 92 1017.4
20260901204106 65 313 0.0 3.0 0.00 0.02 0.02 92 1017.3
20260901203604 65 11 0.0 2.0 0.00 0.02 0.02 92 1017.2
20260901203105 65 11 0.0 2.0 0.00 0.02 0.02 92 1017.2
20260901202604 65 11 0.0 2.0 0.00 0.02 0.02 92 1017.2
20260901202105 65 11 0.0 2.0 0.00 0.02 0.02 92 1017.2
20260901201605 65 11 0.0 1.0 0.00 0.02 0.02 92 1017.1
20260901201108 65 11 0.0 2.0 0.00 0.02 0.02 92 1017.0
20260901201102 65 11 0.0 2.0 0.00 0.02 0.02 92 1017.0
20260901200720 65 11 0.0 2.0 0.00 0.02 0.02 92 1017.0
20260901195604 65 11 0.0 2.0 0.00 0.02 0.02 92 1017.1
20260901195102 65 11 0.0 1.0 0.00 0.02 0.02 92 1017.1
20260901194602 65 11 0.0 1.0 0.00 0.02 0.02 92 1017.3
20260901194102 65 11 0.0 2.0 0.00 0.02 0.02 92 1017.2
20260901193603 65 11 0.0 2.0 0.00 0.02 0.02 91 1017.2
20260901193109 65 11 0.0 2.0 0.00 0.02 0.02 91 1017.1
20260901193104 65 11 0.0 1.0 0.00 0.02 0.02 91 1017.1
20260901192101 65 11 0.0 2.0 0.00 0.02 0.02 91 1017.1
20260901191601 65 11 0.0 1.0 0.00 0.02 0.02 91 1017.1
20260901191102 65 11 0.0 1.0 0.00 0.02 0.02 90 1017.1
20260901190600 66 11 0.0 1.0 0.01 0.02 0.02 90 1017.0
20260901190101 66 11 0.0 2.0 0.01 0.02 0.02 91 1016.9
20260901185605 66 11 0.0 1.0 0.01 0.02 0.02 90 1016.9
20260901185601 66 11 0.0 2.0 0.01 0.02 0.02 91 1016.9
20260901184600 66 11 1.0 3.0 0.01 0.02 0.02 90 1017.1
20260901184101 67 11 0.0 3.0 0.01 0.02 0.02 90 1017.0
20260901183601 67 26 0.0 2.0 0.01 0.02 0.02 90 1017.0
20260901183105 68 26 0.0 2.0 0.01 0.02 0.02 89 1017.0
20260901183058 67 26 0.0 2.0 0.01 0.02 0.02 89 1017.0
20260901182704 67 26 0.0 2.0 0.01 0.02 0.02 90 1017.1
20260901181556 68 26 1.0 2.0 0.01 0.02 0.02 88 1016.9
20260901181102 68 26 1.0 3.0 0.00 0.01 0.01 88 1016.7
20260901181057 68 26 1.0 3.0 0.01 0.02 0.02 88 1016.8
20260901180054 68 23 1.0 2.0 0.00 0.01 0.01 87 1016.5
20260901175554 69 23 1.0 2.0 0.00 0.01 0.01 87 1016.5
20260901175056 69 26 1.0 3.0 0.00 0.01 0.01 87 1016.5
20260901174555 69 26 0.0 2.0 0.00 0.01 0.01 87 1016.5
20260901174057 69 25 0.0 2.0 0.00 0.01 0.01 88 1016.6
20260901174052 69 25 0.0 2.0 0.00 0.01 0.01 87 1016.7
20260901173049 69 25 0.0 2.0 0.00 0.01 0.01 87 1016.6
20260901172556 69 25 1.0 3.0 0.00 0.01 0.01 88 1016.5
20260901172550 69 25 1.0 3.0 0.00 0.01 0.01 87 1016.5
20260901172208 69 26 1.0 3.0 0.00 0.01 0.01 88 1016.6
20260901171049 69 44 1.0 3.0 0.00 0.01 0.01 87 1016.7
20260901170554 70 66 0.0 3.0 0.00 0.01 0.01 89 1016.7
20260901170548 70 67 0.0 1.0 0.00 0.01 0.01 89 1016.7
20260901165546 70 66 1.0 3.0 0.00 0.01 0.01 89 1016.7
20260901165047 70 82 1.0 3.0 0.00 0.01 0.01 88 1016.7
20260901164545 70 319 0.0 3.0 0.00 0.01 0.01 89 1016.5
20260901164047 70 105 0.0 1.0 0.00 0.01 0.01 89 1016.3
20260901163545 70 105 0.0 1.0 0.00 0.01 0.01 89 1016.2
20260901163047 70 105 0.0 1.0 0.00 0.01 0.01 88 1016.1
20260901162545 70 105 0.0 1.0 0.00 0.01 0.01 89 1016.2
20260901162047 70 105 0.0 2.0 0.00 0.01 0.01 89 1016.2
20260901161546 71 105 0.0 3.0 0.00 0.01 0.01 90 1016.5
20260901161046 71 105 1.0 3.0 0.00 0.01 0.01 90 1016.3
20260901160547 71 105 1.0 2.0 0.00 0.01 0.01 91 1016.3
20260901160047 71 107 1.0 3.0 0.00 0.01 0.01 91 1016.2
20260901155548 71 112 1.0 3.0 0.00 0.01 0.01 91 1016.2
20260901155046 71 83 1.0 3.0 0.00 0.01 0.01 92 1016.3
20260901154547 71 92 0.0 1.0 0.00 0.01 0.01 92 1016.5
20260901154047 71 92 1.0 1.0 0.00 0.01 0.01 92 1016.5
20260901153552 71 92 1.0 2.0 0.00 0.01 0.01 93 1016.6
20260901153546 71 92 1.0 2.0 0.00 0.01 0.01 93 1016.6
20260901152551 70 92 1.0 2.0 0.00 0.01 0.01 93 1016.7
20260901152546 70 92 1.0 2.0 0.00 0.01 0.01 93 1016.7
20260901152204 70 89 0.0 2.0 0.00 0.01 0.01 94 1016.8
20260901151546 70 92 0.0 2.0 0.00 0.01 0.01 94 1016.8
20260901150546 70 89 0.0 2.0 0.00 0.01 0.01 94 1016.8
20260901150045 70 89 1.0 3.0 0.00 0.01 0.01 94 1016.8
20260901145546 70 89 1.0 3.0 0.00 0.01 0.01 94 1016.9
20260901145045 70 92 1.0 2.0 0.00 0.01 0.01 95 1016.9
20260901144545 70 92 1.0 2.0 0.00 0.01 0.01 95 1016.9
20260901144044 69 93 1.0 2.0 0.00 0.01 0.01 95 1016.9
20260901143544 69 92 1.0 2.0 0.00 0.01 0.01 95 1017.0
20260901143041 69 93 1.0 2.0 0.00 0.01 0.01 95 1017.0
20260901142542 69 92 1.0 2.0 0.00 0.01 0.01 96 1017.0
20260901142043 69 92 0.0 2.0 0.00 0.01 0.01 95 1017.0
20260901141541 68 92 0.0 2.0 0.00 0.01 0.01 95 1017.1
20260901141042 68 92 0.0 2.0 0.00 0.01 0.01 95 1017.1
20260901140541 68 92 0.0 1.0 0.01 0.01 0.01 95 1017.2
20260901140041 68 92 0.0 1.0 0.01 0.01 0.01 95 1017.2
20260901135541 68 92 0.0 1.0 0.01 0.01 0.01 95 1017.3
20260901135041 68 92 0.0 1.0 0.01 0.01 0.01 95 1017.2
20260901134543 68 92 0.0 1.0 0.01 0.01 0.01 95 1017.1
20260901134047 68 92 0.0 1.0 0.01 0.01 0.01 95 1017.1
20260901134041 68 92 0.0 1.0 0.01 0.01 0.01 95 1017.3
20260901133539 68 92 0.0 1.0 0.01 0.01 0.01 95 1017.3
20260901132541 67 92 0.0 1.0 0.01 0.01 0.01 95 1017.0
20260901132040 67 92 0.0 0.0 0.01 0.01 0.01 95 1017.1
20260901131541 67 92 0.0 0.0 0.01 0.01 0.01 95 1017.3
20260901131039 67 92 0.0 0.0 0.01 0.01 0.01 95 1017.2
20260901130539 67 92 0.0 0.0 0.00 0.00 0.00 95 1017.2
20260901130040 67 92 0.0 0.0 0.00 0.00 0.00 94 1017.2
20260901125540 67 92 0.0 0.0 0.00 0.00 0.00 95 1017.2
20260901125043 67 92 0.0 0.0 0.00 0.00 0.00 95 1017.0
20260901125039 67 92 0.0 0.0 0.00 0.00 0.00 95 1017.1
20260901124657 67 92 0.0 0.0 0.00 0.00 0.00 95 1017.1
20260901123537 67 92 0.0 0.0 0.00 0.00 0.00 95 1017.1
20260901123038 67 92 0.0 0.0 0.00 0.00 0.00 94 1017.1
20260901122537 67 92 0.0 0.0 0.00 0.00 0.00 95 1017.1
20260901122037 67 92 0.0 0.0 0.00 0.00 0.00 94 1017.1
20260901121538 66 92 0.0 0.0 0.00 0.00 0.00 95 1017.1
20260901121037 66 92 0.0 0.0 0.00 0.00 0.00 95 1017.0
20260901120538 66 92 0.0 0.0 0.00 0.00 0.00 94 1017.0
20260901120038 66 92 0.0 0.0 0.00 0.00 0.00 94 1017.0
20260901115535 66 92 0.0 0.0 0.00 0.00 0.00 94 1017.0
20260901115034 66 92 0.0 1.0 0.00 0.00 0.00 94 1017.0
20260901114540 66 92 0.0 1.0 0.00 0.00 0.00 95 1016.8
20260901114536 66 92 0.0 1.0 0.00 0.00 0.00 94 1016.9
20260901113535 66 92 0.0 1.0 0.00 0.00 0.00 95 1016.7
20260901113042 66 92 0.0 1.0 0.00 0.00 0.00 94 1016.8
20260901113036 66 92 0.0 1.0 0.00 0.00 0.00 95 1016.7
20260901112036 66 92 0.0 0.0 0.00 0.00 0.00 94 1016.9
20260901111536 65 92 0.0 0.0 0.00 0.00 0.00 94 1016.8
20260901111035 65 92 0.0 0.0 0.00 0.00 0.00 94 1016.7
20260901110534 65 92 0.0 0.0 0.00 0.00 0.00 94 1016.7
20260901110035 65 92 0.0 0.0 0.00 0.00 0.00 94 1016.7
20260901105535 65 92 0.0 0.0 0.00 0.00 0.00 94 1016.8
20260901105037 65 92 0.0 0.0 0.00 0.00 0.00 94 1016.7
20260901104540 65 92 0.0 0.0 0.00 0.00 0.00 94 1016.7
20260901104535 65 92 0.0 0.0 0.00 0.00 0.00 94 1016.7
20260901103540 65 92 0.0 0.0 0.00 0.00 0.00 94 1016.5
20260901103535 65 92 0.0 0.0 0.00 0.00 0.00 94 1016.6
20260901102536 65 92 0.0 0.0 0.00 0.00 0.00 94 1016.5
20260901102035 65 92 0.0 0.0 0.00 0.00 0.00 94 1016.3